STARLINK-11533, 62836

Orbit data source: Space-Track

STARLINK-11533, 62836 is a payload satellite owned by SpaceX/Seattle (US) in LEO that was launched on Mon, 27 Jan 2025 UTC via an FALCON 9 launch vehicle from the Air Force Eastern Test Range (AFETR). Payload-class satellites include a variety of spacecraft equipped with specific instruments for various scientific and technological missions. These include communications satellites like Starlink; space stations such as the ISS; scientific satellites like the Hubble; Earth observation satellites from companies like Planet Labs, Umbra, and HawkEye 360; GPS; miniature CubeSats for education and research; and military/defense satellites.

Loading next visibility...
Identifier
62836, 2025-019H
Orbit
LEO
Country
Flag of USUS
Related business
Manufacturer
SpaceX/Seattle
Mission
Operational spacecraft
Bus & Motor
STARLINK V2MD, Unknown motor
Mass
960 kg wet, ~910 kg dry
Launch date (UTC)
2025-01-27 (11 months ago)
Launch vehicle
FALCON 9
Launch site
Air Force Eastern Test Range (AFETR)
Object type
Payload
Rocket body
Debris
Shape & HBR
Unknown shape, 18.1 m
Radar Cross Section
Large (>1 m²)

Expand to show TLE details & history
Last TLE update: 12 hours ago

TLE from 12 hours ago
0 STARLINK-11533
1 62836U 25019H   25348.32179512  .00250199  00000-0  18941-2 0  9995
2 62836  42.9995 100.6366 0001777 251.3995 108.6680 15.70853661 50458
Epoch: 2025-12-14T07:43Z
TLE epoch observation values (Epoch: 2025-12-14T07:43:23.098Z)
Latitude
0.00001°
Longitude
-98.44602°
Altitude
356.61 km
Speed
7.697 km/s
True Right ascension
06h 42m 32s
True Declination
0° 00' 00"
Sunlit
Object was in full shadow at epoch
Visualization orbit readout
Latitude
Unknown
Longitude
Unknown
Altitude
Unknown
Speed
Unknown
Apparent Right ascension
Unknown
Apparent Declination
Unknown
Sunlit
N/A
Visualization observer readout
Local Sidereal Time
18:45:29
Azimuth
Unknown
Elevation
Unknown
Doppler factor
Unknown
Orbital elements
Apogee altitude
359.635 km
Perigee altitude
357.241 km
Semi-major axis
6,736.575 km
Eccentricity
0.00018
Inclination
42.9995°
RAAN
100.6366°
Arg. of periapsis
251.3995°
True anomaly
108.68729°
Mean anomaly
108.668°
Eccentric anomaly
108.67765°
Mean motion
3.92541 °/min
Orbital period
91.71 mins
BSTAR
0.0018941
Loading maneuver chart data...
Computing Atmospheric mass density...
Loading historical data...
Loading historical data...
Loading historical data...
Loading historical data...
Loading historical data...
Loading historical data...
Loading historical data...

Documentation

Showing up to 5 results
|